Time,TemperatureF,DewpointF,PressureIn,WindDirection,WindDirectionDegrees,WindSpeedMPH,WindSpeedGustMPH,Humidity,HourlyPrecipIn,Conditions,Clouds,dailyrainin,SoftwareType,DateUTC
2013-04-14 00:03:00,41.0,-99.9,-100.00,North,1,0.0,0.0,-999,0.00,,,0.03,,2013-04-14 04:03:00,
2013-04-14 00:13:00,41.0,-99.9,-100.00,North,1,0.0,0.0,-999,0.00,,,0.03,,2013-04-14 04:13:00,
2013-04-14 00:23:00,41.0,-99.9,-100.00,North,1,0.0,0.0,-999,0.00,,,0.02,,2013-04-14 04:23:00,
2013-04-14 00:33:00,41.0,-99.9,-100.00,North,1,0.0,2.0,-999,0.00,,,0.02,,2013-04-14 04:33:00,
2013-04-14 00:43:00,41.0,-99.9,-100.00,North,1,0.0,2.0,-999,0.00,,,0.02,,2013-04-14 04:43:00,
2013-04-14 00:53:00,42.0,-99.9,-100.00,North,1,0.0,0.0,-999,0.00,,,0.01,,2013-04-14 04:53:00,
2013-04-14 01:03:00,42.0,-99.9,-100.00,North,1,0.0,0.0,-999,0.00,,,0.01,,2013-04-14 05:03:00,
2013-04-14 01:12:00,42.0,-99.9,-100.00,North,1,0.0,0.0,-999,0.00,,,0.01,,2013-04-14 05:12:00,
2013-04-14 01:23:00,42.0,-99.9,-100.00,North,1,0.0,0.0,-999,0.00,,,0.01,,2013-04-14 05:23:00,
2013-04-14 01:32:00,42.0,-99.9,-100.00,North,1,0.0,1.0,-999,0.00,,,0.00,,2013-04-14 05:32:00,
2013-04-14 01:43:00,42.0,-99.9,-100.00,North,1,0.0,1.0,-999,0.00,,,0.00,,2013-04-14 05:43:00,
2013-04-14 01:53:00,42.0,-99.9,-100.00,North,1,0.0,3.0,-999,0.00,,,0.00,,2013-04-14 05:53:00,
2013-04-14 02:02:00,43.0,-99.9,-100.00,North,1,0.0,1.0,-999,0.00,,,0.00,,2013-04-14 06:02:00,
2013-04-14 02:12:00,43.0,-99.9,-100.00,North,1,0.0,1.0,-999,0.00,,,0.00,,2013-04-14 06:12:00,
2013-04-14 02:22:00,43.0,-99.9,-100.00,North,1,0.0,2.0,-999,0.00,,,0.00,,2013-04-14 06:22:00,
2013-04-14 02:32:00,44.0,-99.9,-100.00,North,1,0.0,5.0,-999,0.00,,,0.00,,2013-04-14 06:32:00,
2013-04-14 02:42:00,44.0,-99.9,-100.00,North,1,0.0,5.0,-999,0.00,,,0.00,,2013-04-14 06:42:00,
2013-04-14 02:53:00,44.0,-99.9,-100.00,North,1,1.0,2.0,-999,0.00,,,0.00,,2013-04-14 06:53:00,
2013-04-14 03:03:00,44.0,-99.9,-100.00,North,1,0.0,2.0,-999,0.00,,,0.00,,2013-04-14 07:03:00,
2013-04-14 03:12:00,44.0,-99.9,-100.00,North,1,0.0,2.0,-999,0.00,,,0.00,,2013-04-14 07:12:00,
2013-04-14 03:23:00,44.0,-99.9,-100.00,North,1,1.0,3.0,-999,0.00,,,0.00,,2013-04-14 07:23:00,
2013-04-14 03:33:00,44.0,-99.9,-100.00,North,1,0.0,3.0,-999,0.00,,,0.00,,2013-04-14 07:33:00,
2013-04-14 03:42:00,44.0,-99.9,-100.00,North,1,0.0,3.0,-999,0.00,,,0.00,,2013-04-14 07:42:00,
2013-04-14 03:53:00,43.0,-99.9,-100.00,North,1,0.0,3.0,-999,0.00,,,0.00,,2013-04-14 07:53:00,
2013-04-14 04:03:00,43.0,-99.9,-100.00,North,1,0.0,3.0,-999,0.00,,,0.00,,2013-04-14 08:03:00,
2013-04-14 04:13:00,43.0,-99.9,-100.00,North,1,0.0,3.0,-999,0.00,,,0.00,,2013-04-14 08:13:00,
2013-04-14 04:23:00,43.0,-99.9,-100.00,North,1,0.0,0.0,-999,0.00,,,0.00,,2013-04-14 08:23:00,
2013-04-14 04:33:00,42.0,-99.9,-100.00,North,1,0.0,0.0,-999,0.00,,,0.00,,2013-04-14 08:33:00,
2013-04-14 04:43:00,42.0,-99.9,-100.00,North,1,0.0,0.0,-999,0.00,,,0.00,,2013-04-14 08:43:00,
2013-04-14 04:53:00,42.0,-99.9,-100.00,North,1,0.0,0.0,-999,0.00,,,0.00,,2013-04-14 08:53:00,
2013-04-14 05:03:00,41.0,-99.9,-100.00,North,1,0.0,3.0,-999,0.00,,,0.00,,2013-04-14 09:03:00,
2013-04-14 05:12:00,41.0,-99.9,-100.00,North,1,0.0,3.0,-999,0.00,,,0.00,,2013-04-14 09:12:00,
2013-04-14 05:23:00,41.0,-99.9,-100.00,North,1,0.0,0.0,-999,0.00,,,0.00,,2013-04-14 09:23:00,
2013-04-14 05:33:00,40.0,-99.9,-100.00,North,1,0.0,2.0,-999,0.00,,,0.00,,2013-04-14 09:33:00,
2013-04-14 05:43:00,40.0,-99.9,-100.00,North,1,0.0,2.0,-999,0.00,,,0.00,,2013-04-14 09:43:00,
2013-04-14 05:54:00,40.0,-99.9,-100.00,North,1,0.0,2.0,-999,0.00,,,0.00,,2013-04-14 09:54:00,
2013-04-14 06:03:00,39.0,-99.9,-100.00,North,1,0.0,0.0,-999,0.00,,,0.00,,2013-04-14 10:03:00,
2013-04-14 06:13:00,39.0,-99.9,-100.00,North,1,0.0,0.0,-999,0.00,,,0.00,,2013-04-14 10:13:00,
2013-04-14 06:23:00,39.0,-99.9,-100.00,North,1,0.0,0.0,-999,0.00,,,0.00,,2013-04-14 10:23:00,
2013-04-14 06:33:00,39.0,-99.9,-100.00,North,1,2.0,5.0,-999,0.00,,,0.00,,2013-04-14 10:33:00,
2013-04-14 06:43:00,39.0,-99.9,-100.00,North,1,2.0,5.0,-999,0.00,,,0.00,,2013-04-14 10:43:00,
2013-04-14 06:53:00,39.0,-99.9,-100.00,North,3,3.0,9.0,-999,0.00,,,0.00,,2013-04-14 10:53:00,
2013-04-14 07:03:00,42.0,-99.9,-100.00,North,7,2.0,9.0,-999,0.00,,,0.00,,2013-04-14 11:03:00,
2013-04-14 07:13:00,42.0,-99.9,-100.00,North,7,2.0,9.0,-999,0.00,,,0.00,,2013-04-14 11:13:00,
2013-04-14 07:23:00,42.0,-99.9,-100.00,North,1,2.0,8.0,-999,0.00,,,0.00,,2013-04-14 11:23:00,
2013-04-14 07:33:00,42.0,-99.9,-100.00,North,1,0.0,6.0,-999,0.00,,,0.00,,2013-04-14 11:33:00,
2013-04-14 07:42:00,42.0,-99.9,-100.00,North,1,0.0,6.0,-999,0.00,,,0.00,,2013-04-14 11:42:00,
2013-04-14 07:53:00,43.0,-99.9,-100.00,North,1,0.0,5.0,-999,0.00,,,0.00,,2013-04-14 11:53:00,
2013-04-14 08:02:00,49.0,-99.9,-100.00,North,1,2.0,6.0,-999,0.00,,,0.00,,2013-04-14 12:02:00,
2013-04-14 08:12:00,49.0,-99.9,-100.00,North,1,2.0,6.0,-999,0.00,,,0.00,,2013-04-14 12:12:00,
2013-04-14 08:22:00,50.0,-99.9,-100.00,North,2,1.0,7.0,-999,0.00,,,0.00,,2013-04-14 12:22:00,
2013-04-14 08:32:00,46.0,-99.9,-100.00,North,2,5.0,13.0,-999,0.00,,,0.00,,2013-04-14 12:32:00,
2013-04-14 08:42:00,46.0,-99.9,-100.00,North,2,5.0,13.0,-999,0.00,,,0.00,,2013-04-14 12:42:00,
2013-04-14 08:52:00,47.0,-99.9,-100.00,North,1,3.0,12.0,-999,0.00,,,0.00,,2013-04-14 12:52:00,
2013-04-14 09:02:00,47.0,-99.9,-100.00,North,1,2.0,12.0,-999,0.00,,,0.00,,2013-04-14 13:02:00,
2013-04-14 09:12:00,47.0,-99.9,-100.00,North,1,2.0,12.0,-999,0.00,,,0.00,,2013-04-14 13:12:00,
2013-04-14 09:23:00,51.0,-99.9,-100.00,North,1,3.0,10.0,-999,0.00,,,0.00,,2013-04-14 13:23:00,
2013-04-14 09:33:00,57.0,-99.9,-100.00,North,1,7.0,20.0,-999,0.00,,,0.00,,2013-04-14 13:33:00,
2013-04-14 09:43:00,57.0,-99.9,-100.00,North,1,7.0,20.0,-999,0.00,,,0.00,,2013-04-14 13:43:00,
2013-04-14 09:53:00,58.0,-99.9,-100.00,North,1,5.0,13.0,-999,0.00,,,0.00,,2013-04-14 13:53:00,
2013-04-14 10:03:00,55.0,-99.9,-100.00,North,1,9.0,18.0,-999,0.00,,,0.00,,2013-04-14 14:03:00,
2013-04-14 10:12:00,55.0,-99.9,-100.00,North,1,9.0,18.0,-999,0.00,,,0.00,,2013-04-14 14:12:00,
2013-04-14 10:23:00,52.0,-99.9,-100.00,North,4,6.0,15.0,-999,0.00,,,0.00,,2013-04-14 14:23:00,
2013-04-14 10:33:00,50.0,-99.9,-100.00,North,3,6.0,16.0,-999,0.00,,,0.00,,2013-04-14 14:33:00,
2013-04-14 10:42:00,50.0,-99.9,-100.00,North,3,6.0,16.0,-999,0.00,,,0.00,,2013-04-14 14:42:00,
2013-04-14 10:53:00,50.0,-99.9,-100.00,North,2,6.0,18.0,-999,0.00,,,0.00,,2013-04-14 14:53:00,
2013-04-14 11:03:00,50.0,-99.9,-100.00,North,1,7.0,15.0,-999,0.00,,,0.00,,2013-04-14 15:03:00,
2013-04-14 11:13:00,50.0,-99.9,-100.00,North,1,7.0,15.0,-999,0.00,,,0.00,,2013-04-14 15:13:00,
2013-04-14 11:23:00,51.0,-99.9,-100.00,North,1,6.0,12.0,-999,0.00,,,0.00,,2013-04-14 15:23:00,
2013-04-14 11:34:00,52.0,-99.9,-100.00,North,4,6.0,12.0,-999,0.00,,,0.00,,2013-04-14 15:34:00,
2013-04-14 11:44:00,52.0,-99.9,-100.00,North,4,6.0,12.0,-999,0.00,,,0.00,,2013-04-14 15:44:00,
2013-04-14 11:53:00,55.0,-99.9,-100.00,North,1,4.0,15.0,-999,0.00,,,0.00,,2013-04-14 15:53:00,
2013-04-14 12:05:00,56.0,-99.9,-100.00,North,1,6.0,18.0,-999,0.00,,,0.00,,2013-04-14 16:05:00,
2013-04-14 12:13:00,56.0,-99.9,-100.00,North,1,6.0,18.0,-999,0.00,,,0.00,,2013-04-14 16:13:00,
2013-04-14 12:23:00,53.0,-99.9,-100.00,NNE,18,4.0,12.0,-999,0.00,,,0.00,,2013-04-14 16:23:00,
2013-04-14 12:33:00,54.0,-99.9,-100.00,North,1,3.0,16.0,-999,0.00,,,0.00,,2013-04-14 16:33:00,
2013-04-14 12:44:00,54.0,-99.9,-100.00,North,1,3.0,16.0,-999,0.00,,,0.00,,2013-04-14 16:44:00,
2013-04-14 12:53:00,54.0,-99.9,-100.00,North,6,7.0,13.0,-999,0.00,,,0.00,,2013-04-14 16:53:00,
2013-04-14 13:02:00,53.0,-99.9,-100.00,North,1,6.0,16.0,-999,0.00,,,0.00,,2013-04-14 17:02:00,
2013-04-14 13:13:00,53.0,-99.9,-100.00,North,1,6.0,16.0,-999,0.00,,,0.00,,2013-04-14 17:13:00,
2013-04-14 13:23:00,54.0,-99.9,-100.00,North,8,6.0,13.0,-999,0.00,,,0.00,,2013-04-14 17:23:00,
2013-04-14 13:33:00,54.0,-99.9,-100.00,North,2,6.0,14.0,-999,0.00,,,0.00,,2013-04-14 17:33:00,
2013-04-14 13:43:00,54.0,-99.9,-100.00,North,2,6.0,14.0,-999,0.00,,,0.00,,2013-04-14 17:43:00,
2013-04-14 13:53:00,55.0,-99.9,-100.00,North,6,6.0,15.0,-999,0.00,,,0.00,,2013-04-14 17:53:00,
2013-04-14 14:03:00,58.0,-99.9,-100.00,North,4,9.0,15.0,-999,0.00,,,0.00,,2013-04-14 18:03:00,
2013-04-14 14:13:00,58.0,-99.9,-100.00,North,4,9.0,15.0,-999,0.00,,,0.00,,2013-04-14 18:13:00,
2013-04-14 14:22:00,56.0,-99.9,-100.00,NE,44,5.0,12.0,-999,0.00,,,0.00,,2013-04-14 18:22:00,
2013-04-14 14:33:00,56.0,-99.9,-100.00,North,1,3.0,14.0,-999,0.00,,,0.00,,2013-04-14 18:33:00,
2013-04-14 14:43:00,56.0,-99.9,-100.00,North,1,3.0,14.0,-999,0.00,,,0.00,,2013-04-14 18:43:00,
2013-04-14 14:54:00,58.0,-99.9,-100.00,North,4,5.0,14.0,-999,0.00,,,0.00,,2013-04-14 18:54:00,
2013-04-14 15:04:00,56.0,-99.9,-100.00,North,3,7.0,17.0,-999,0.00,,,0.00,,2013-04-14 19:04:00,
2013-04-14 15:12:00,56.0,-99.9,-100.00,North,3,7.0,17.0,-999,0.00,,,0.00,,2013-04-14 19:12:00,
2013-04-14 15:23:00,54.0,-99.9,-100.00,North,3,9.0,14.0,-999,0.00,,,0.00,,2013-04-14 19:23:00,
2013-04-14 15:33:00,55.0,-99.9,-100.00,North,2,6.0,14.0,-999,0.00,,,0.00,,2013-04-14 19:33:00,
2013-04-14 15:43:00,55.0,-99.9,-100.00,North,2,6.0,14.0,-999,0.00,,,0.00,,2013-04-14 19:43:00,
2013-04-14 15:53:00,54.0,-99.9,-100.00,North,11,5.0,17.0,-999,0.00,,,0.00,,2013-04-14 19:53:00,
2013-04-14 16:03:00,58.0,-99.9,-100.00,North,7,7.0,14.0,-999,0.00,,,0.00,,2013-04-14 20:03:00,
2013-04-14 16:13:00,58.0,-99.9,-100.00,North,7,7.0,14.0,-999,0.00,,,0.00,,2013-04-14 20:13:00,
2013-04-14 16:22:00,57.0,-99.9,-100.00,North,5,7.0,15.0,-999,0.00,,,0.00,,2013-04-14 20:22:00,
2013-04-14 16:33:00,53.0,-99.9,-100.00,North,1,11.0,18.0,-999,0.00,,,0.00,,2013-04-14 20:33:00,
2013-04-14 16:43:00,53.0,-99.9,-100.00,North,1,11.0,18.0,-999,0.00,,,0.00,,2013-04-14 20:43:00,
2013-04-14 16:53:00,53.0,-99.9,-100.00,North,3,6.0,16.0,-999,0.00,,,0.00,,2013-04-14 20:53:00,
2013-04-14 17:02:00,54.0,-99.9,-100.00,North,2,5.0,14.0,-999,0.00,,,0.00,,2013-04-14 21:02:00,
2013-04-14 17:13:00,54.0,-99.9,-100.00,North,2,5.0,14.0,-999,0.00,,,0.00,,2013-04-14 21:13:00,
2013-04-14 17:23:00,56.0,-99.9,-100.00,North,6,7.0,13.0,-999,0.00,,,0.00,,2013-04-14 21:23:00,
2013-04-14 17:34:00,60.0,-99.9,-100.00,North,1,3.0,13.0,-999,0.00,,,0.00,,2013-04-14 21:34:00,
2013-04-14 17:43:00,60.0,-99.9,-100.00,North,1,3.0,13.0,-999,0.00,,,0.00,,2013-04-14 21:43:00,
2013-04-14 17:54:00,56.0,-99.9,-100.00,North,1,3.0,13.0,-999,0.00,,,0.00,,2013-04-14 21:54:00,
2013-04-14 18:03:00,52.0,-99.9,-100.00,North,3,5.0,16.0,-999,0.00,,,0.00,,2013-04-14 22:03:00,
2013-04-14 18:13:00,52.0,-99.9,-100.00,North,3,5.0,16.0,-999,0.00,,,0.00,,2013-04-14 22:13:00,
2013-04-14 18:23:00,51.0,-99.9,-100.00,North,3,6.0,13.0,-999,0.00,,,0.00,,2013-04-14 22:23:00,
2013-04-14 18:33:00,51.0,-99.9,-100.00,North,0,3.0,12.0,-999,0.00,,,0.00,,2013-04-14 22:33:00,
2013-04-14 18:44:00,51.0,-99.9,-100.00,North,0,3.0,12.0,-999,0.00,,,0.00,,2013-04-14 22:44:00,
2013-04-14 18:53:00,50.0,-99.9,-100.00,North,0,6.0,13.0,-999,0.00,,,0.00,,2013-04-14 22:53:00,
2013-04-14 19:02:00,49.0,-99.9,-100.00,North,0,4.0,8.0,-999,0.00,,,0.00,,2013-04-14 23:02:00,
2013-04-14 19:13:00,49.0,-99.9,-100.00,North,0,4.0,8.0,-999,0.00,,,0.00,,2013-04-14 23:13:00,
2013-04-14 19:23:00,49.0,-99.9,-100.00,NE,52,1.0,7.0,-999,0.00,,,0.00,,2013-04-14 23:23:00,
2013-04-14 19:33:00,47.0,-99.9,-100.00,North,0,2.0,5.0,-999,0.00,,,0.00,,2013-04-14 23:33:00,
2013-04-14 19:43:00,47.0,-99.9,-100.00,North,0,2.0,5.0,-999,0.00,,,0.00,,2013-04-14 23:43:00,
2013-04-14 19:53:00,47.0,-99.9,-100.00,North,0,2.0,7.0,-999,0.00,,,0.00,,2013-04-14 23:53:00,
2013-04-14 20:02:00,45.0,-99.9,-100.00,North,0,0.0,1.0,-999,0.00,,,0.00,,2013-04-15 00:02:00,
2013-04-14 20:13:00,45.0,-99.9,-100.00,North,0,0.0,1.0,-999,0.00,,,0.00,,2013-04-15 00:13:00,
2013-04-14 20:23:00,44.0,-99.9,-100.00,North,0,2.0,5.0,-999,0.00,,,0.00,,2013-04-15 00:23:00,
2013-04-14 20:34:00,44.0,-99.9,-100.00,North,0,1.0,5.0,-999,0.00,,,0.00,,2013-04-15 00:34:00,
2013-04-14 20:43:00,44.0,-99.9,-100.00,North,0,1.0,5.0,-999,0.00,,,0.00,,2013-04-15 00:43:00,
2013-04-14 20:53:00,43.0,-99.9,-100.00,North,0,0.0,2.0,-999,0.00,,,0.00,,2013-04-15 00:53:00,
2013-04-14 21:03:00,42.0,-99.9,-100.00,North,0,0.0,0.0,-999,0.00,,,0.00,,2013-04-15 01:03:00,
2013-04-14 21:13:00,42.0,-99.9,-100.00,North,0,0.0,0.0,-999,0.00,,,0.00,,2013-04-15 01:13:00,
2013-04-14 21:23:00,41.0,-99.9,-100.00,North,0,1.0,3.0,-999,0.00,,,0.00,,2013-04-15 01:23:00,
2013-04-14 21:33:00,42.0,-99.9,-100.00,North,0,2.0,8.0,-999,0.00,,,0.00,,2013-04-15 01:33:00,
2013-04-14 21:43:00,42.0,-99.9,-100.00,North,0,2.0,8.0,-999,0.00,,,0.00,,2013-04-15 01:43:00,
2013-04-14 21:53:00,42.0,-99.9,-100.00,North,0,3.0,7.0,-999,0.00,,,0.00,,2013-04-15 01:53:00,
2013-04-14 22:03:00,42.0,-99.9,-100.00,North,0,2.0,6.0,-999,0.00,,,0.00,,2013-04-15 02:03:00,
2013-04-14 22:13:00,42.0,-99.9,-100.00,North,0,2.0,6.0,-999,0.00,,,0.00,,2013-04-15 02:13:00,
2013-04-14 22:23:00,42.0,-99.9,-100.00,North,0,1.0,6.0,-999,0.00,,,0.00,,2013-04-15 02:23:00,
2013-04-14 22:33:00,42.0,-99.9,-100.00,North,0,2.0,5.0,-999,0.00,,,0.00,,2013-04-15 02:33:00,
2013-04-14 22:42:00,42.0,-99.9,-100.00,North,0,2.0,5.0,-999,0.00,,,0.00,,2013-04-15 02:42:00,
2013-04-14 22:53:00,42.0,-99.9,-100.00,North,0,3.0,8.0,-999,0.00,,,0.00,,2013-04-15 02:53:00,
2013-04-14 23:03:00,42.0,-99.9,-100.00,North,0,2.0,6.0,-999,0.00,,,0.00,,2013-04-15 03:03:00,
2013-04-14 23:12:00,42.0,-99.9,-100.00,North,0,2.0,6.0,-999,0.00,,,0.00,,2013-04-15 03:12:00,
2013-04-14 23:22:00,42.0,-99.9,-100.00,North,0,3.0,6.0,-999,0.00,,,0.00,,2013-04-15 03:22:00,
2013-04-14 23:33:00,41.0,-99.9,-100.00,North,0,2.0,5.0,-999,0.00,,,0.00,,2013-04-15 03:33:00,
2013-04-14 23:43:00,41.0,-99.9,-100.00,North,0,2.0,5.0,-999,0.00,,,0.00,,2013-04-15 03:43:00,
2013-04-14 23:55:00,41.0,-99.9,-100.00,North,0,1.0,3.0,-999,0.00,,,0.00,,2013-04-15 03:55:00,